| time (UTC) | temp F | wind direction | speed MPH | gust MPH | rain 1hr in | rain 24hr in | rain mn in | humidity % | barometer mb |
| 20260507095510 | 56 | 86 | 0.0 | 0.0 | 0.00 | 0.00 | 0.00 | 90 | 1016.1 |
| 20260507095010 | 56 | 86 | 0.0 | 0.0 | 0.00 | 0.00 | 0.00 | 90 | 1016.1 |
| 20260507094009 | 56 | 86 | 0.0 | 0.0 | 0.00 | 0.00 | 0.00 | 90 | 1016.2 |
| 20260507093509 | 56 | 84 | 0.0 | 0.0 | 0.00 | 0.00 | 0.00 | 90 | 1016.3 |
| 20260507093009 | 56 | 84 | 0.0 | 0.0 | 0.00 | 0.00 | 0.00 | 90 | 1016.3 |
| 20260507092009 | 56 | 84 | 0.0 | 0.0 | 0.00 | 0.00 | 0.00 | 90 | 1016.3 |
| 20260507091509 | 56 | 83 | 0.0 | 0.0 | 0.00 | 0.00 | 0.00 | 90 | 1016.3 |
| 20260507091009 | 56 | 83 | 0.0 | 0.0 | 0.00 | 0.00 | 0.00 | 90 | 1016.3 |
| 20260507090508 | 56 | 83 | 0.0 | 0.0 | 0.00 | 0.00 | 0.00 | 89 | 1016.3 |
| 20260507090008 | 56 | 82 | 0.0 | 0.0 | 0.00 | 0.00 | 0.00 | 89 | 1016.4 |
| 20260507085508 | 57 | 82 | 0.0 | 0.0 | 0.00 | 0.00 | 0.00 | 89 | 1016.5 |
| 20260507085009 | 57 | 82 | 0.0 | 0.0 | 0.00 | 0.00 | 0.00 | 89 | 1016.6 |
| 20260507084008 | 57 | 82 | 0.0 | 0.0 | 0.00 | 0.00 | 0.00 | 89 | 1016.6 |
| 20260507083508 | 57 | 82 | 0.0 | 0.0 | 0.00 | 0.00 | 0.00 | 89 | 1016.7 |
| 20260507083009 | 57 | 82 | 0.0 | 0.0 | 0.00 | 0.00 | 0.00 | 89 | 1016.6 |
| 20260507082509 | 57 | 82 | 0.0 | 0.0 | 0.00 | 0.00 | 0.00 | 89 | 1016.8 |
| 20260507081508 | 57 | 118 | 0.0 | 0.0 | 0.00 | 0.00 | 0.00 | 89 | 1016.7 |
| 20260507081008 | 57 | 118 | 0.0 | 0.0 | 0.00 | 0.00 | 0.00 | 89 | 1016.9 |
| 20260507080508 | 58 | 118 | 0.0 | 0.0 | 0.00 | 0.00 | 0.00 | 89 | 1016.8 |
| 20260507080008 | 57 | 116 | 0.0 | 0.0 | 0.00 | 0.00 | 0.00 | 89 | 1016.9 |
| 20260507075508 | 58 | 115 | 0.0 | 0.0 | 0.00 | 0.00 | 0.00 | 89 | 1016.9 |
| 20260507075008 | 57 | 118 | 0.0 | 0.0 | 0.00 | 0.00 | 0.00 | 89 | 1016.8 |
| 20260507074508 | 58 | 117 | 0.0 | 0.0 | 0.00 | 0.00 | 0.00 | 88 | 1016.8 |
| 20260507073508 | 58 | 116 | 0.0 | 0.0 | 0.00 | 0.00 | 0.00 | 88 | 1017.0 |
| 20260507073008 | 58 | 116 | 0.0 | 0.0 | 0.00 | 0.00 | 0.00 | 88 | 1017.0 |
| 20260507071507 | 58 | 122 | 0.0 | 0.0 | 0.00 | 0.00 | 0.00 | 88 | 1017.1 |
| 20260507071007 | 58 | 122 | 0.0 | 0.0 | 0.00 | 0.00 | 0.00 | 88 | 1017.1 |
| 20260507070507 | 58 | 122 | 0.0 | 0.0 | 0.00 | 0.00 | 0.00 | 88 | 1017.1 |
| 20260507070010 | 58 | 122 | 0.0 | 0.0 | 0.00 | 0.00 | 0.00 | 87 | 1017.1 |
| 20260507065507 | 58 | 122 | 0.0 | 0.0 | 0.00 | 0.00 | 0.00 | 87 | 1017.1 |
| 20260507065007 | 58 | 122 | 0.0 | 0.0 | 0.00 | 0.00 | 0.00 | 87 | 1017.1 |
| 20260507064507 | 58 | 122 | 0.0 | 0.0 | 0.00 | 0.00 | 0.00 | 87 | 1017.1 |
| 20260507063507 | 58 | 122 | 0.0 | 0.0 | 0.00 | 0.00 | 0.00 | 87 | 1017.0 |
| 20260507062507 | 59 | 122 | 0.0 | 0.0 | 0.00 | 0.00 | 0.00 | 87 | 1016.9 |
| 20260507062006 | 59 | 122 | 0.0 | 0.0 | 0.00 | 0.00 | 0.00 | 87 | 1016.9 |
| 20260507061006 | 58 | 132 | 0.0 | 0.0 | 0.00 | 0.00 | 0.00 | 86 | 1017.0 |
| 20260507060506 | 58 | 198 | 0.0 | 0.0 | 0.00 | 0.00 | 0.00 | 85 | 1017.0 |
| 20260507060006 | 59 | 198 | 0.0 | 0.0 | 0.00 | 0.00 | 0.00 | 85 | 1017.0 |
| 20260507055506 | 59 | 198 | 0.0 | 0.0 | 0.00 | 0.00 | 0.00 | 85 | 1017.1 |
| 20260507055006 | 59 | 198 | 0.0 | 0.0 | 0.00 | 0.00 | 0.00 | 85 | 1017.1 |
| 20260507054506 | 59 | 198 | 0.0 | 0.0 | 0.00 | 0.00 | 0.00 | 85 | 1017.0 |
| 20260507054006 | 59 | 198 | 0.0 | 0.0 | 0.00 | 0.00 | 0.00 | 84 | 1017.0 |
| 20260507053506 | 59 | 198 | 0.0 | 0.0 | 0.00 | 0.00 | 0.00 | 84 | 1017.1 |
| 20260507053006 | 59 | 198 | 0.0 | 0.0 | 0.00 | 0.00 | 0.00 | 84 | 1017.0 |
| 20260507052506 | 60 | 198 | 0.0 | 0.0 | 0.00 | 0.00 | 0.00 | 84 | 1017.1 |
| 20260507052006 | 60 | 198 | 0.0 | 0.0 | 0.00 | 0.00 | 0.00 | 83 | 1017.1 |
| 20260507051506 | 60 | 198 | 0.0 | 0.0 | 0.00 | 0.00 | 0.00 | 83 | 1017.0 |
| 20260507051006 | 60 | 198 | 0.0 | 0.0 | 0.00 | 0.00 | 0.00 | 83 | 1017.1 |
| 20260507050506 | 60 | 198 | 0.0 | 0.0 | 0.00 | 0.00 | 0.00 | 83 | 1017.1 |
| 20260507050006 | 60 | 198 | 0.0 | 0.0 | 0.00 | 0.00 | 0.00 | 83 | 1016.9 |
| 20260507045505 | 60 | 198 | 0.0 | 0.0 | 0.00 | 0.00 | 0.00 | 83 | 1016.8 |
| 20260507045005 | 60 | 213 | 0.0 | 0.0 | 0.00 | 0.00 | 0.00 | 83 | 1016.9 |
| 20260507044505 | 61 | 222 | 0.0 | 0.0 | 0.00 | 0.00 | 0.00 | 83 | 1016.9 |
| 20260507044006 | 61 | 218 | 0.0 | 0.0 | 0.00 | 0.00 | 0.00 | 82 | 1016.9 |
| 20260507043506 | 61 | 217 | 0.0 | 0.0 | 0.00 | 0.00 | 0.00 | 82 | 1016.8 |
| 20260507043005 | 61 | 285 | 0.0 | 0.0 | 0.00 | 0.00 | 0.00 | 81 | 1016.8 |
| 20260507042505 | 61 | 286 | 0.0 | 0.0 | 0.00 | 0.00 | 0.00 | 81 | 1016.9 |
| 20260507042005 | 61 | 286 | 0.0 | 0.0 | 0.00 | 0.00 | 0.00 | 81 | 1016.8 |
| 20260507041505 | 61 | 220 | 0.0 | 0.0 | 0.00 | 0.00 | 0.00 | 81 | 1016.9 |
| 20260507041006 | 61 | 204 | 0.0 | 2.0 | 0.00 | 0.00 | 0.00 | 80 | 1016.8 |
| 20260507040505 | 61 | 205 | 0.0 | 3.0 | 0.00 | 0.00 | 0.00 | 80 | 1016.7 |
| 20260507035505 | 62 | 230 | 0.0 | 3.0 | 0.00 | 0.00 | 0.00 | 81 | 1016.7 |
| 20260507035005 | 62 | 226 | 0.0 | 2.0 | 0.00 | 0.00 | 0.00 | 81 | 1016.7 |
| 20260507034505 | 62 | 207 | 0.0 | 3.0 | 0.00 | 0.00 | 0.00 | 81 | 1016.6 |
| 20260507033505 | 62 | 225 | 0.0 | 4.0 | 0.00 | 0.00 | 0.00 | 80 | 1016.6 |
| 20260507033005 | 62 | 257 | 0.0 | 4.0 | 0.00 | 0.00 | 0.00 | 80 | 1016.6 |
| 20260507031005 | 63 | 234 | 3.0 | 5.0 | 0.00 | 0.00 | 0.00 | 79 | 1016.5 |
| 20260507030505 | 63 | 211 | 2.0 | 6.0 | 0.00 | 0.00 | 0.00 | 79 | 1016.4 |
| 20260507030004 | 63 | 290 | 4.0 | 6.0 | 0.00 | 0.00 | 0.00 | 79 | 1016.3 |
| 20260507025004 | 64 | 278 | 2.0 | 4.0 | 0.00 | 0.00 | 0.00 | 79 | 1016.1 |
| 20260507024504 | 64 | 253 | 2.0 | 5.0 | 0.00 | 0.00 | 0.00 | 78 | 1016.1 |
| 20260507024005 | 64 | 288 | 4.0 | 5.0 | 0.00 | 0.00 | 0.00 | 77 | 1016.1 |
| 20260507023505 | 64 | 250 | 3.0 | 5.0 | 0.00 | 0.00 | 0.00 | 77 | 1016.1 |
| 20260507022004 | 65 | 236 | 3.0 | 7.0 | 0.00 | 0.00 | 0.00 | 74 | 1016.0 |
| 20260507021504 | 65 | 259 | 2.0 | 6.0 | 0.00 | 0.00 | 0.00 | 73 | 1016.0 |
| 20260507021004 | 66 | 254 | 3.0 | 7.0 | 0.00 | 0.00 | 0.00 | 71 | 1015.9 |
| 20260507020004 | 66 | 261 | 5.0 | 8.0 | 0.00 | 0.00 | 0.00 | 70 | 1015.8 |
| 20260507015004 | 67 | 304 | 6.0 | 9.0 | 0.00 | 0.00 | 0.00 | 68 | 1015.6 |
| 20260507014504 | 67 | 278 | 5.0 | 9.0 | 0.00 | 0.00 | 0.00 | 65 | 1015.6 |
| 20260507014003 | 67 | 259 | 4.0 | 8.0 | 0.00 | 0.00 | 0.00 | 64 | 1015.5 |
| 20260507013504 | 68 | 252 | 3.0 | 8.0 | 0.00 | 0.00 | 0.00 | 63 | 1015.6 |
| 20260507013003 | 68 | 290 | 7.0 | 8.0 | 0.00 | 0.00 | 0.00 | 61 | 1015.5 |
| 20260507012504 | 68 | 285 | 5.0 | 8.0 | 0.00 | 0.00 | 0.00 | 61 | 1015.5 |
| 20260507012003 | 68 | 284 | 4.0 | 11.0 | 0.00 | 0.00 | 0.00 | 61 | 1015.6 |
| 20260507011503 | 68 | 245 | 2.0 | 11.0 | 0.00 | 0.00 | 0.00 | 60 | 1015.5 |
| 20260507010003 | 69 | 227 | 5.0 | 10.0 | 0.00 | 0.00 | 0.00 | 58 | 1015.4 |
| 20260507005504 | 69 | 269 | 5.0 | 10.0 | 0.00 | 0.00 | 0.00 | 58 | 1015.4 |
| 20260507005003 | 69 | 257 | 4.0 | 8.0 | 0.00 | 0.00 | 0.00 | 57 | 1015.3 |
| 20260507004503 | 70 | 259 | 4.0 | 12.0 | 0.00 | 0.00 | 0.00 | 57 | 1015.5 |
| 20260507004003 | 69 | 229 | 3.0 | 12.0 | 0.00 | 0.00 | 0.00 | 58 | 1015.5 |
| 20260507003503 | 69 | 237 | 4.0 | 11.0 | 0.00 | 0.00 | 0.00 | 58 | 1015.5 |
| 20260507002503 | 69 | 244 | 4.0 | 11.0 | 0.00 | 0.00 | 0.00 | 59 | 1015.4 |
| 20260507002003 | 69 | 265 | 5.0 | 11.0 | 0.00 | 0.00 | 0.00 | 60 | 1015.2 |
| 20260507001002 | 69 | 261 | 6.0 | 12.0 | 0.00 | 0.00 | 0.00 | 62 | 1015.2 |
| 20260507000502 | 69 | 300 | 4.0 | 12.0 | 0.00 | 0.00 | 0.00 | 62 | 1015.1 |
| 20260506235503 | 69 | 259 | 6.0 | 11.0 | 0.00 | 0.00 | 0.00 | 62 | 1015.0 |
| 20260506235002 | 69 | 288 | 9.0 | 13.0 | 0.00 | 0.00 | 0.00 | 61 | 1015.1 |
| 20260506234502 | 69 | 236 | 5.0 | 13.0 | 0.00 | 0.00 | 0.00 | 62 | 1015.1 |
| 20260506234003 | 69 | 277 | 7.0 | 12.0 | 0.00 | 0.00 | 0.00 | 62 | 1015.1 |
| 20260506233503 | 70 | 249 | 3.0 | 12.0 | 0.00 | 0.00 | 0.00 | 61 | 1015.0 |
| 20260506233003 | 70 | 302 | 4.0 | 12.0 | 0.00 | 0.00 | 0.00 | 62 | 1015.0 |
| 20260506232502 | 70 | 276 | 9.0 | 12.0 | 0.00 | 0.00 | 0.00 | 62 | 1015.2 |
| 20260506231502 | 70 | 238 | 10.0 | 12.0 | 0.00 | 0.00 | 0.00 | 63 | 1015.3 |
| 20260506231002 | 70 | 246 | 6.0 | 11.0 | 0.00 | 0.00 | 0.00 | 62 | 1015.3 |
| 20260506230502 | 70 | 274 | 6.0 | 13.0 | 0.00 | 0.00 | 0.00 | 61 | 1015.3 |
| 20260506230002 | 69 | 265 | 10.0 | 13.0 | 0.00 | 0.00 | 0.00 | 62 | 1015.2 |
| 20260506225001 | 70 | 274 | 6.0 | 15.0 | 0.00 | 0.00 | 0.00 | 62 | 1015.4 |
| 20260506224501 | 70 | 287 | 7.0 | 15.0 | 0.00 | 0.00 | 0.00 | 62 | 1015.4 |
| 20260506224001 | 70 | 260 | 7.0 | 12.0 | 0.00 | 0.00 | 0.00 | 64 | 1015.5 |
| 20260506223501 | 70 | 223 | 10.0 | 12.0 | 0.00 | 0.00 | 0.00 | 63 | 1015.7 |
| 20260506221501 | 70 | 290 | 9.0 | 13.0 | 0.00 | 0.00 | 0.00 | 64 | 1015.7 |
| 20260506221001 | 70 | 272 | 9.0 | 13.0 | 0.00 | 0.00 | 0.00 | 64 | 1015.8 |
| 20260506220501 | 70 | 284 | 9.0 | 12.0 | 0.00 | 0.00 | 0.00 | 63 | 1015.9 |
| 20260506215501 | 70 | 260 | 5.0 | 12.0 | 0.00 | 0.00 | 0.00 | 64 | 1016.0 |
| 20260506214501 | 70 | 269 | 5.0 | 14.0 | 0.00 | 0.00 | 0.00 | 64 | 1016.0 |
| 20260506214001 | 70 | 276 | 8.0 | 16.0 | 0.00 | 0.00 | 0.00 | 64 | 1016.0 |
| 20260506213501 | 70 | 279 | 8.0 | 16.0 | 0.00 | 0.00 | 0.00 | 63 | 1016.0 |
| 20260506213001 | 70 | 271 | 6.0 | 14.0 | 0.00 | 0.00 | 0.00 | 62 | 1016.2 |
| 20260506212000 | 70 | 274 | 7.0 | 13.0 | 0.00 | 0.00 | 0.00 | 63 | 1016.1 |
| 20260506210500 | 70 | 294 | 7.0 | 13.0 | 0.00 | 0.00 | 0.00 | 63 | 1016.2 |
| 20260506210000 | 70 | 242 | 7.0 | 13.0 | 0.00 | 0.00 | 0.00 | 63 | 1016.2 |
| 20260506205000 | 70 | 222 | 6.0 | 14.0 | 0.00 | 0.00 | 0.00 | 63 | 1016.3 |
| 20260506204500 | 70 | 250 | 7.0 | 12.0 | 0.00 | 0.00 | 0.00 | 64 | 1016.3 |
| 20260506204000 | 70 | 211 | 9.0 | 14.0 | 0.00 | 0.00 | 0.00 | 64 | 1016.3 |
| 20260506203500 | 70 | 243 | 10.0 | 14.0 | 0.00 | 0.00 | 0.00 | 64 | 1016.2 |
| 20260506202000 | 69 | 274 | 8.0 | 12.0 | 0.00 | 0.00 | 0.00 | 65 | 1016.6 |
| 20260506201500 | 69 | 242 | 8.0 | 12.0 | 0.00 | 0.00 | 0.00 | 64 | 1016.6 |
| 20260506201000 | 70 | 224 | 7.0 | 12.0 | 0.00 | 0.00 | 0.00 | 63 | 1016.7 |
| 20260506200500 | 70 | 302 | 7.0 | 12.0 | 0.00 | 0.00 | 0.00 | 62 | 1016.8 |
| 20260506200000 | 70 | 277 | 8.0 | 14.0 | 0.00 | 0.00 | 0.00 | 64 | 1016.8 |
| 20260506195500 | 69 | 278 | 8.0 | 14.0 | 0.00 | 0.00 | 0.00 | 64 | 1016.8 |
| 20260506195000 | 69 | 295 | 6.0 | 14.0 | 0.00 | 0.00 | 0.00 | 63 | 1016.9 |
| 20260506194500 | 70 | 271 | 7.0 | 14.0 | 0.00 | 0.00 | 0.00 | 63 | 1016.9 |
| 20260506194000 | 70 | 286 | 9.0 | 13.0 | 0.00 | 0.00 | 0.00 | 63 | 1016.9 |
| 20260506192500 | 70 | 250 | 3.0 | 15.0 | 0.00 | 0.00 | 0.00 | 62 | 1016.9 |
| 20260506191959 | 70 | 287 | 5.0 | 15.0 | 0.00 | 0.00 | 0.00 | 62 | 1017.2 |
| 20260506191459 | 71 | 241 | 7.0 | 11.0 | 0.00 | 0.00 | 0.00 | 60 | 1017.3 |
| 20260506190959 | 71 | 275 | 5.0 | 11.0 | 0.00 | 0.00 | 0.00 | 60 | 1017.2 |
| 20260506190459 | 71 | 316 | 2.0 | 11.0 | 0.00 | 0.00 | 0.00 | 59 | 1017.1 |
| 20260506190002 | 71 | 290 | 4.0 | 9.0 | 0.00 | 0.00 | 0.00 | 58 | 1017.1 |
| 20260506185459 | 70 | 257 | 6.0 | 8.0 | 0.00 | 0.00 | 0.00 | 57 | 1017.2 |
| 20260506184959 | 70 | 273 | 7.0 | 8.0 | 0.00 | 0.00 | 0.00 | 57 | 1017.2 |
| 20260506184459 | 70 | 261 | 6.0 | 8.0 | 0.00 | 0.00 | 0.00 | 57 | 1017.2 |
| 20260506183959 | 70 | 240 | 4.0 | 8.0 | 0.00 | 0.00 | 0.00 | 56 | 1017.3 |
| 20260506183459 | 69 | 244 | 3.0 | 10.0 | 0.00 | 0.00 | 0.00 | 55 | 1017.5 |
| 20260506182959 | 70 | 219 | 5.0 | 10.0 | 0.00 | 0.00 | 0.00 | 55 | 1017.5 |
| 20260506182459 | 70 | 237 | 6.0 | 7.0 | 0.00 | 0.00 | 0.00 | 54 | 1017.6 |
| 20260506181959 | 70 | 250 | 3.0 | 7.0 | 0.00 | 0.00 | 0.00 | 56 | 1017.7 |
| 20260506181459 | 69 | 319 | 2.0 | 6.0 | 0.00 | 0.00 | 0.00 | 57 | 1017.7 |
| 20260506180959 | 69 | 50 | 0.0 | 6.0 | 0.00 | 0.00 | 0.00 | 56 | 1017.7 |
| 20260506180458 | 69 | 269 | 4.0 | 6.0 | 0.00 | 0.00 | 0.00 | 57 | 1017.7 |
| 20260506175958 | 69 | 22 | 0.0 | 4.0 | 0.00 | 0.00 | 0.00 | 59 | 1017.8 |
| 20260506175459 | 68 | 302 | 0.0 | 6.0 | 0.00 | 0.00 | 0.00 | 59 | 1017.9 |
| 20260506174958 | 68 | 309 | 4.0 | 7.0 | 0.00 | 0.00 | 0.00 | 60 | 1018.0 |
| 20260506174459 | 67 | 306 | 1.0 | 7.0 | 0.00 | 0.00 | 0.00 | 59 | 1018.1 |
| 20260506173958 | 66 | 302 | 7.0 | 7.0 | 0.00 | 0.00 | 0.00 | 61 | 1018.0 |
| 20260506173458 | 66 | 244 | 6.0 | 6.0 | 0.00 | 0.00 | 0.00 | 61 | 1018.0 |
| 20260506172958 | 66 | 192 | 0.0 | 6.0 | 0.00 | 0.00 | 0.00 | 63 | 1018.0 |
| 20260506171958 | 65 | 84 | 1.0 | 6.0 | 0.00 | 0.00 | 0.00 | 63 | 1018.1 |
| 20260506171458 | 65 | 279 | 6.0 | 7.0 | 0.00 | 0.00 | 0.00 | 66 | 1018.2 |
| 20260506170958 | 65 | 221 | 3.0 | 7.0 | 0.00 | 0.00 | 0.00 | 65 | 1018.3 |
| 20260506170458 | 65 | 254 | 2.0 | 5.0 | 0.00 | 0.00 | 0.00 | 66 | 1018.2 |
| 20260506164958 | 64 | 240 | 0.0 | 6.0 | 0.00 | 0.00 | 0.00 | 68 | 1018.2 |
| 20260506164457 | 64 | 290 | 4.0 | 5.0 | 0.00 | 0.00 | 0.00 | 68 | 1018.2 |
| 20260506163957 | 63 | 273 | 0.0 | 6.0 | 0.00 | 0.00 | 0.00 | 70 | 1018.3 |
| 20260506162957 | 63 | 279 | 6.0 | 7.0 | 0.00 | 0.00 | 0.00 | 71 | 1018.3 |
| 20260506162457 | 62 | 284 | 5.0 | 7.0 | 0.00 | 0.00 | 0.00 | 74 | 1018.2 |
| 20260506161957 | 62 | 225 | 3.0 | 7.0 | 0.00 | 0.00 | 0.00 | 74 | 1018.2 |
| 20260506161457 | 62 | 232 | 3.0 | 6.0 | 0.00 | 0.00 | 0.00 | 76 | 1018.2 |
| 20260506160957 | 61 | 274 | 2.0 | 5.0 | 0.00 | 0.00 | 0.00 | 77 | 1018.1 |
| 20260506160457 | 61 | 237 | 2.0 | 6.0 | 0.00 | 0.00 | 0.00 | 77 | 1018.1 |
| 20260506155957 | 61 | 237 | 0.0 | 6.0 | 0.00 | 0.00 | 0.00 | 78 | 1018.2 |
| 20260506154956 | 60 | 216 | 0.0 | 0.0 | 0.00 | 0.00 | 0.00 | 81 | 1018.2 |
| 20260506154457 | 60 | 214 | 0.0 | 4.0 | 0.00 | 0.00 | 0.00 | 82 | 1018.1 |
| 20260506153956 | 59 | 304 | 0.0 | 4.0 | 0.00 | 0.00 | 0.00 | 83 | 1018.2 |
| 20260506153456 | 59 | 222 | 0.0 | 0.0 | 0.00 | 0.00 | 0.00 | 85 | 1018.2 |
| 20260506152956 | 58 | 285 | 0.0 | 1.0 | 0.00 | 0.00 | 0.00 | 86 | 1018.2 |
| 20260506152456 | 58 | 298 | 0.0 | 1.0 | 0.00 | 0.00 | 0.00 | 88 | 1018.2 |
| 20260506151956 | 57 | 253 | 0.0 | 0.0 | 0.00 | 0.00 | 0.00 | 89 | 1018.2 |
| 20260506151456 | 57 | 255 | 0.0 | 0.0 | 0.00 | 0.00 | 0.00 | 91 | 1018.2 |
| 20260506150956 | 56 | 250 | 0.0 | 0.0 | 0.00 | 0.00 | 0.00 | 92 | 1018.2 |
| 20260506145957 | 55 | 270 | 0.0 | 0.0 | 0.00 | 0.00 | 0.00 | 93 | 1018.3 |
| 20260506144456 | 54 | 300 | 0.0 | 0.0 | 0.00 | 0.00 | 0.00 | 94 | 1018.2 |
| 20260506143956 | 53 | 300 | 0.0 | 0.0 | 0.00 | 0.00 | 0.00 | 94 | 1018.1 |
| 20260506143455 | 53 | 306 | 0.0 | 0.0 | 0.00 | 0.00 | 0.00 | 95 | 1018.1 |
| 20260506142955 | 52 | 319 | 0.0 | 0.0 | 0.00 | 0.00 | 0.00 | 95 | 1018.1 |
| 20260506142455 | 51 | 46 | 0.0 | 0.0 | 0.00 | 0.00 | 0.00 | 95 | 1018.0 |
| 20260506141955 | 51 | 48 | 0.0 | 0.0 | 0.00 | 0.00 | 0.00 | 95 | 1018.0 |
| 20260506141456 | 50 | 71 | 0.0 | 0.0 | 0.00 | 0.00 | 0.00 | 94 | 1017.9 |
| 20260506140955 | 50 | 71 | 0.0 | 0.0 | 0.00 | 0.00 | 0.00 | 94 | 1017.9 |
| 20260506140455 | 50 | 71 | 0.0 | 0.0 | 0.00 | 0.00 | 0.00 | 94 | 1017.9 |
| 20260506135455 | 49 | 71 | 0.0 | 0.0 | 0.00 | 0.00 | 0.00 | 94 | 1017.8 |
| 20260506134955 | 49 | 71 | 0.0 | 0.0 | 0.00 | 0.00 | 0.00 | 93 | 1017.8 |
| 20260506134455 | 49 | 71 | 0.0 | 0.0 | 0.00 | 0.00 | 0.00 | 93 | 1017.7 |
| 20260506133955 | 49 | 71 | 0.0 | 0.0 | 0.00 | 0.00 | 0.00 | 93 | 1017.6 |
| 20260506132955 | 49 | 71 | 0.0 | 0.0 | 0.00 | 0.00 | 0.00 | 93 | 1017.5 |
| 20260506131955 | 49 | 71 | 0.0 | 0.0 | 0.00 | 0.00 | 0.00 | 93 | 1017.5 |
| 20260506130455 | 49 | 291 | 0.0 | 0.0 | 0.00 | 0.00 | 0.00 | 92 | 1017.3 |
| 20260506125955 | 49 | 291 | 0.0 | 0.0 | 0.00 | 0.00 | 0.00 | 93 | 1017.2 |
| 20260506125454 | 49 | 291 | 0.0 | 0.0 | 0.00 | 0.00 | 0.00 | 93 | 1017.2 |
| 20260506124955 | 49 | 291 | 0.0 | 0.0 | 0.00 | 0.00 | 0.00 | 92 | 1017.1 |
| 20260506124454 | 49 | 291 | 0.0 | 0.0 | 0.00 | 0.00 | 0.00 | 92 | 1017.1 |
| 20260506123954 | 49 | 291 | 0.0 | 0.0 | 0.00 | 0.00 | 0.00 | 92 | 1017.0 |
| 20260506122954 | 50 | 291 | 0.0 | 0.0 | 0.00 | 0.00 | 0.00 | 93 | 1017.0 |
| 20260506122454 | 50 | 291 | 0.0 | 0.0 | 0.00 | 0.00 | 0.00 | 93 | 1017.0 |
| 20260506121954 | 49 | 291 | 0.0 | 0.0 | 0.00 | 0.00 | 0.00 | 93 | 1017.0 |
| 20260506121454 | 49 | 291 | 0.0 | 0.0 | 0.00 | 0.00 | 0.00 | 92 | 1017.0 |
| 20260506120954 | 49 | 291 | 0.0 | 0.0 | 0.00 | 0.00 | 0.00 | 92 | 1017.0 |
| 20260506120454 | 49 | 291 | 0.0 | 0.0 | 0.00 | 0.00 | 0.00 | 92 | 1017.0 |
| 20260506115954 | 49 | 291 | 0.0 | 0.0 | 0.00 | 0.00 | 0.00 | 92 | 1017.2 |
| 20260506115454 | 49 | 291 | 0.0 | 0.0 | 0.00 | 0.00 | 0.00 | 92 | 1017.0 |
| 20260506114454 | 50 | 291 | 0.0 | 0.0 | 0.00 | 0.00 | 0.00 | 92 | 1017.0 |
| 20260506113453 | 50 | 291 | 0.0 | 0.0 | 0.00 | 0.00 | 0.00 | 92 | 1016.9 |
| 20260506112953 | 50 | 291 | 0.0 | 0.0 | 0.00 | 0.00 | 0.00 | 92 | 1016.9 |
| 20260506112453 | 50 | 291 | 0.0 | 0.0 | 0.00 | 0.01 | 0.00 | 92 | 1016.9 |
| 20260506111953 | 50 | 291 | 0.0 | 0.0 | 0.00 | 0.01 | 0.00 | 92 | 1016.9 |
| 20260506110953 | 50 | 291 | 0.0 | 0.0 | 0.00 | 0.01 | 0.00 | 92 | 1016.9 |
| 20260506110453 | 50 | 291 | 0.0 | 0.0 | 0.00 | 0.01 | 0.00 | 92 | 1016.9 |
| 20260506105453 | 51 | 291 | 0.0 | 0.0 | 0.00 | 0.01 | 0.00 | 91 | 1017.0 |
| 20260506104953 | 51 | 291 | 0.0 | 0.0 | 0.00 | 0.01 | 0.00 | 91 | 1017.0 |
| 20260506103953 | 51 | 291 | 0.0 | 0.0 | 0.00 | 0.02 | 0.00 | 91 | 1017.0 |
| 20260506103453 | 51 | 291 | 0.0 | 0.0 | 0.00 | 0.03 | 0.00 | 91 | 1017.0 |
| 20260506102953 | 51 | 291 | 0.0 | 0.0 | 0.00 | 0.04 | 0.00 | 91 | 1017.0 |
| 20260506102453 | 51 | 291 | 0.0 | 0.0 | 0.00 | 0.08 | 0.00 | 91 | 1016.9 |
| 20260506101953 | 51 | 291 | 0.0 | 0.0 | 0.00 | 0.08 | 0.00 | 91 | 1016.8 |
| 20260506101453 | 51 | 291 | 0.0 | 0.0 | 0.00 | 0.08 | 0.00 | 91 | 1016.8 |
| 20260506100952 | 51 | 291 | 0.0 | 0.0 | 0.00 | 0.08 | 0.00 | 91 | 1016.8 |
| 20260506100453 | 51 | 291 | 0.0 | 0.0 | 0.00 | 0.08 | 0.00 | 90 | 1016.9 |